Tracking 19794 objects as of 21-Jul-2019
HD Live streaming from Space Station
objects crossing your sky now

ARIANE 2 DEB

Track ARIANE 2 DEB now!


NORAD ID: 33548
Int'l Code: 1989-006AQ
Perigee: 1,241.5 km
Apogee: 35,609.2 km
Inclination: 9.8 °
Period: 647.7 minutes
Semi major axis: 24796 km
RCS: 0.2055 m2 (medium)
Launch date: January 27, 1989
Source: France (FR)
Launch site: FRENCH GUIANA (FRGUI)

Note: This is SATELLITE DEBRIS
aabbcc
Your satellite tracking list
Your tracking list is empty




NASA's NSSDC Master Catalog

Two Line Element Set (TLE):
1 33548U 89006AQ  19198.80740142 -.00000143  00000-0  00000+0 0  9998
2 33548   9.8063  76.2161 6929998 113.5547 329.9683  2.22342035112010
Source of the keplerian elements: AFSPC